When you browse on this site, cookies collect data to enhance your experience and personalize the content and advertising you see.
Visit our Privacy Policy to learn more. By continuing to use the site, you agree to this use of cookies and data.
  • En España
  • Lista de países
  • Para 7 días
  • Temperatura del agua
  • El tiempo en el mapa
  • Informadores
  • user-avatar
    Iniciar sesión

    Tiempo cada hora Tegu

    Hoy, 7 Junio, Domingo

    Tiempo Temperatura Precipitaciones Viento Presión Humedad
    00:00 +19°C° 0.1 mm 1 mps 753 mmHg 77%
    01:00 +19°C° 0 mm 1 mps 753 mmHg 77%
    02:00 +18°C° 0 mm 1 mps 753 mmHg 77%
    03:00 +16°C° 0 mm 0 mps 753 mmHg 76%
    04:00 +16°C° 0 mm 0 mps 753 mmHg 76%
    05:00 +16°C° 0 mm 0 mps 754 mmHg 76%
    06:00 +16°C° 0 mm 0 mps 754 mmHg 76%
    07:00 +18°C° 0 mm 0 mps 754 mmHg 67%
    08:00 +21°C° 0 mm 0 mps 754 mmHg 58%
    09:00 +26°C° 0 mm 1 mps 754 mmHg 49%
    10:00 +28°C° 0 mm 1 mps 754 mmHg 46%
    11:00 +30°C° 0 mm 1 mps 754 mmHg 43%
    12:00 +32°C° 0 mm 1 mps 754 mmHg 40%
    13:00 +32°C° 0 mm 1 mps 754 mmHg 40%
    14:00 +32°C° 0 mm 1 mps 753 mmHg 39%
    15:00 +33°C° 0 mm 1 mps 753 mmHg 38%
    16:00 +31°C° 0 mm 2 mps 753 mmHg 42%
    17:00 +30°C° 0 mm 2 mps 753 mmHg 46%
    18:00 +29°C° 0 mm 2 mps 753 mmHg 50%
    19:00 +27°C° 0 mm 2 mps 753 mmHg 54%
    20:00 +24°C° 0 mm 1 mps 753 mmHg 57%
    21:00 +22°C° 0 mm 1 mps 754 mmHg 61%
    22:00 +22°C° 0 mm 1 mps 754 mmHg 61%
    23:00 +21°C° 0 mm 1 mps 754 mmHg 61%

    Mañana, 8 Junio, Lunes

    Tiempo Temperatura Precipitaciones Viento Presión Humedad
    00:00 +21°C° 0 mm 1 mps 755 mmHg 61%
    01:00 +18°C° 0 mm 0 mps 755 mmHg 62%
    02:00 +18°C° 0 mm 0 mps 754 mmHg 63%
    03:00 +18°C° 0 mm 0 mps 754 mmHg 63%
    04:00 +18°C° 0 mm 0 mps 755 mmHg 64%
    05:00 +18°C° 0 mm 0 mps 755 mmHg 66%
    06:00 +19°C° 0 mm 0 mps 755 mmHg 67%
    07:00 +21°C° 0 mm 0 mps 755 mmHg 63%
    08:00 +24°C° 0 mm 0 mps 755 mmHg 59%
    09:00 +29°C° 0 mm 1 mps 756 mmHg 54%
    10:00 +31°C° 0 mm 1 mps 756 mmHg 49%
    11:00 +33°C° 0 mm 1 mps 756 mmHg 44%
    12:00 +35°C° 0 mm 1 mps 756 mmHg 39%
    13:00 +35°C° 0 mm 1 mps 755 mmHg 36%
    14:00 +36°C° 0 mm 2 mps 755 mmHg 34%
    15:00 +37°C° 0 mm 2 mps 754 mmHg 32%
    16:00 +35°C° 0 mm 2 mps 754 mmHg 35%
    17:00 +34°C° 0 mm 3 mps 755 mmHg 38%
    18:00 +33°C° 0 mm 3 mps 755 mmHg 41%
    19:00 +29°C° 0 mm 3 mps 755 mmHg 46%
    20:00 +27°C° 0 mm 2 mps 755 mmHg 50%
    21:00 +25°C° 0 mm 1 mps 755 mmHg 55%
    22:00 +24°C° 0 mm 1 mps 756 mmHg 57%
    23:00 +24°C° 0 mm 1 mps 756 mmHg 58%

    Pasado mañana, 9 Junio, Martes

    Tiempo Temperatura Precipitaciones Viento Presión Humedad
    00:00 +23°C° 0 mm 1 mps 756 mmHg 60%
    01:00 +22°C° 0 mm 1 mps 756 mmHg 62%
    02:00 +22°C° 0 mm 1 mps 756 mmHg 63%
    03:00 +20°C° 0 mm 0 mps 756 mmHg 65%
    04:00 +20°C° 0 mm 0 mps 756 mmHg 66%
    05:00 +20°C° 0 mm 0 mps 756 mmHg 68%
    06:00 +20°C° 0 mm 0 mps 756 mmHg 69%
    07:00 +23°C° 0 mm 0 mps 756 mmHg 62%
    08:00 +26°C° 0 mm 0 mps 756 mmHg 55%
    09:00 +29°C° 0 mm 0 mps 756 mmHg 48%
    10:00 +30°C° 0 mm 0 mps 756 mmHg 43%
    11:00 +34°C° 0 mm 1 mps 756 mmHg 38%
    12:00 +36°C° 0 mm 1 mps 756 mmHg 33%
    13:00 +37°C° 0 mm 2 mps 755 mmHg 30%
    14:00 +37°C° 0 mm 2 mps 755 mmHg 27%
    15:00 +37°C° 0 mm 2 mps 754 mmHg 25%
    16:00 +36°C° 0 mm 2 mps 754 mmHg 29%
    17:00 +35°C° 0 mm 2 mps 754 mmHg 33%
    18:00 +34°C° 0 mm 2 mps 754 mmHg 37%
    19:00 +31°C° 0 mm 2 mps 754 mmHg 44%
    20:00 +28°C° 0 mm 2 mps 754 mmHg 51%
    21:00 +26°C° 0 mm 2 mps 755 mmHg 59%
    22:00 +25°C° 0 mm 1 mps 755 mmHg 61%
    23:00 +24°C° 0 mm 1 mps 755 mmHg 64%

    10 Junio, Miércoles

    Tiempo Temperatura Precipitaciones Viento Presión Humedad
    00:00 +23°C° 0 mm 1 mps 755 mmHg 66%
    01:00 +23°C° 0 mm 1 mps 755 mmHg 68%
    02:00 +20°C° 0 mm 0 mps 754 mmHg 70%
    03:00 +19°C° 0 mm 0 mps 754 mmHg 73%
    04:00 +20°C° 0 mm 0 mps 754 mmHg 73%
    05:00 +20°C° 0 mm 0 mps 754 mmHg 73%
    06:00 +20°C° 0 mm 0 mps 753 mmHg 73%
    07:00 +23°C° 0 mm 0 mps 753 mmHg 64%
    08:00 +26°C° 0 mm 0 mps 753 mmHg 55%
    09:00 +28°C° 0 mm 0 mps 753 mmHg 46%
    10:00 +30°C° 0 mm 0 mps 753 mmHg 40%
    11:00 +34°C° 0 mm 1 mps 752 mmHg 35%
    12:00 +36°C° 0 mm 1 mps 752 mmHg 30%
    13:00 +36°C° 0 mm 1 mps 751 mmHg 29%
    14:00 +36°C° 0 mm 1 mps 751 mmHg 29%
    15:00 +37°C° 0 mm 2 mps 750 mmHg 28%
    16:00 +36°C° 0 mm 2 mps 750 mmHg 33%
    17:00 +35°C° 0 mm 2 mps 750 mmHg 38%
    18:00 +34°C° 0 mm 2 mps 750 mmHg 43%
    19:00 +31°C° 0 mm 1 mps 750 mmHg 48%
    20:00 +29°C° 0 mm 1 mps 750 mmHg 54%
    21:00 +27°C° 0 mm 1 mps 750 mmHg 60%
    22:00 +26°C° 0.1 mm 1 mps 750 mmHg 64%
    23:00 +25°C° 0.1 mm 1 mps 750 mmHg 68%

    11 Junio, Jueves

    Tiempo Temperatura Precipitaciones Viento Presión Humedad
    00:00 +25°C° 0.1 mm 1 mps 750 mmHg 72%
    01:00 +24°C° 0.2 mm 1 mps 750 mmHg 76%
    02:00 +23°C° 0.2 mm 1 mps 750 mmHg 80%
    03:00 +23°C° 0.2 mm 1 mps 749 mmHg 85%
    04:00 +23°C° 0.1 mm 1 mps 749 mmHg 85%
    05:00 +23°C° 0.1 mm 1 mps 749 mmHg 86%
    06:00 +23°C° 0.1 mm 1 mps 749 mmHg 86%
    07:00 +25°C° 0 mm 1 mps 749 mmHg 78%
    08:00 +25°C° 0 mm 0 mps 749 mmHg 70%
    09:00 +27°C° 0 mm 0 mps 749 mmHg 63%
    10:00 +29°C° 0 mm 0 mps 749 mmHg 56%
    11:00 +32°C° 0 mm 1 mps 749 mmHg 50%
    12:00 +34°C° 0 mm 1 mps 749 mmHg 44%
    13:00 +34°C° 0 mm 1 mps 748 mmHg 44%
    14:00 +34°C° 0 mm 1 mps 747 mmHg 44%
    15:00 +34°C° 0 mm 1 mps 747 mmHg 44%
    16:00 +34°C° 0 mm 2 mps 747 mmHg 48%
    17:00 +32°C° 0 mm 2 mps 746 mmHg 52%
    18:00 +31°C° 0 mm 2 mps 746 mmHg 56%
    19:00 +29°C° 0 mm 2 mps 746 mmHg 65%
    20:00 +27°C° 0 mm 1 mps 747 mmHg 74%
    21:00 +25°C° 0 mm 1 mps 747 mmHg 83%
    22:00 +25°C° 0 mm 1 mps 748 mmHg 85%
    23:00 +24°C° 0 mm 1 mps 748 mmHg 88%

    12 Junio, Viernes

    Tiempo Temperatura Precipitaciones Viento Presión Humedad
    00:00 +24°C° 0 mm 1 mps 748 mmHg 90%
    01:00 +23°C° 0 mm 1 mps 748 mmHg 91%
    02:00 +23°C° 0 mm 1 mps 748 mmHg 92%
    03:00 +23°C° 0 mm 1 mps 747 mmHg 93%
    04:00 +23°C° 0 mm 1 mps 747 mmHg 93%
    05:00 +23°C° 0 mm 1 mps 747 mmHg 93%
    06:00 +23°C° 0 mm 1 mps 747 mmHg 93%
    07:00 +25°C° 0 mm 1 mps 748 mmHg 86%
    08:00 +26°C° 0 mm 1 mps 748 mmHg 79%
    09:00 +28°C° 0 mm 2 mps 748 mmHg 72%
    10:00 +29°C° 0.1 mm 2 mps 748 mmHg 70%
    11:00 +29°C° 0.1 mm 2 mps 748 mmHg 67%
    12:00 +30°C° 0.1 mm 3 mps 748 mmHg 64%
    13:00 +29°C° 1.8 mm 3 mps 747 mmHg 72%
    14:00 +28°C° 1.8 mm 3 mps 746 mmHg 79%
    15:00 +27°C° 1.8 mm 3 mps 746 mmHg 86%
    16:00 +26°C° 10.1 mm 2 mps 745 mmHg 90%
    17:00 +26°C° 10.1 mm 2 mps 745 mmHg 93%
    18:00 +25°C° 10.1 mm 1 mps 744 mmHg 97%
    19:00 +25°C° 8.8 mm 1 mps 744 mmHg 97%
    20:00 +25°C° 8.8 mm 1 mps 744 mmHg 97%
    21:00 +25°C° 8.8 mm 1 mps 744 mmHg 97%
    22:00 +25°C° 0.6 mm 1 mps 745 mmHg 97%
    23:00 +25°C° 0.6 mm 1 mps 745 mmHg 97%
    Mostrar más